{"data":{"norad_id":65821,"intl_designator":"2025-220E","name":"HULIANWANG DIGUI-86","alt_names":[],"object_type":"PAYLOAD","status":"ACTIVE","operator":null,"country":"PRC","launch_date":"2025-09-27","launch_site_code":"TAISC","launch_vehicle":null,"mission":null,"orbit_class":"UNKNOWN","rcs_meters":null,"size_class":null,"mass_kg":null,"dimensions":null,"purposes":[],"wikipedia_slug":null,"has_3d_model":false,"image_url":null,"decayed_at":null,"tle_current":{"epoch":"2026-05-25T04:01:27.812064Z","epoch_age_seconds":54516,"freshness":"FRESH","line1":"1 65821U 25220E   26145.16768301  .00000056  00000+0  97436-4 0  9996","line2":"2 65821  86.4984  51.6046 0001678  81.7401 278.3923 13.24417505 31873","mean_motion":13.24417505,"eccentricity":0.0001678,"inclination_deg":86.4984,"raan_deg":51.6046,"arg_perigee_deg":81.7401,"mean_anomaly_deg":278.3923,"bstar":9.7436e-5,"rev_number":3187,"period_min":108.7270437429,"perigee_km":1166.6274544409,"apogee_km":1169.1599023365,"semimajor_km":7546.0306783887,"source":"CELESTRAK","updated_at":"2026-05-25T13:38:05.701915Z"}}}